EWG2R LIMC-EDDH

Flight info

Callsign EWG2R
Flight time 1h 35m
Altitude 36000
Route PEPAG DCT ABESI N851 UTAVO DCT ROLSA/N0448F370 DCT LOKTA DCT TEDGO DCT HAREM DCT LOHRE DCT MASEK DCT ELNAT/N0444F380 P605 NOLGO NOLGO6A
Aircraft A320/M-SDE3FGHIRWY/LB1

Departure

Time 2026-04-30 19:16
Airport Milan Malpensa International Airport (LIMC)

Arrival

Time 2026-04-30 20:51
Airport Hamburg Helmut Schmidt Airport (EDDH)
Time Latitude Longitude Altitude Speed Heading
2026-04-30 18:38 45.62551 8.71672 741 ft 0 kts 169°
2026-04-30 19:03 45.62559 8.71670 741 ft 4 kts 169°
2026-04-30 19:04 45.62611 8.71653 738 ft 4 kts 148°
2026-04-30 19:04 45.62625 8.71655 738 ft 4 kts 81°
2026-04-30 19:05 45.62634 8.71712 741 ft 0 kts 79°
2026-04-30 19:07 45.62639 8.71747 741 ft 8 kts 79°
2026-04-30 19:08 45.62597 8.71847 741 ft 8 kts 170°
2026-04-30 19:08 45.62414 8.71896 740 ft 17 kts 169°
2026-04-30 19:08 45.62286 8.71931 741 ft 20 kts 169°
2026-04-30 19:09 45.61989 8.72013 739 ft 23 kts 168°
2026-04-30 19:09 45.61824 8.72060 741 ft 25 kts 169°
2026-04-30 19:09 45.61648 8.72107 741 ft 26 kts 169°
2026-04-30 19:10 45.61275 8.72210 741 ft 29 kts 169°
2026-04-30 19:10 45.60874 8.72322 742 ft 30 kts 169°
2026-04-30 19:11 45.60711 8.72368 742 ft 21 kts 169°
2026-04-30 19:11 45.60622 8.72716 742 ft 22 kts 96°
2026-04-30 19:11 45.60605 8.72939 742 ft 23 kts 96°
2026-04-30 19:12 45.60590 8.73177 742 ft 24 kts 83°
2026-04-30 19:12 45.60716 8.73318 740 ft 25 kts 27°
2026-04-30 19:12 45.60868 8.73400 741 ft 24 kts 18°
2026-04-30 19:13 45.61203 8.73320 742 ft 26 kts 349°
2026-04-30 19:13 45.61547 8.73227 741 ft 20 kts 349°
2026-04-30 19:13 45.61612 8.73245 741 ft 8 kts 59°
2026-04-30 19:14 45.61628 8.73354 741 ft 14 kts 79°
2026-04-30 19:14 45.61607 8.73491 741 ft 15 kts 124°
2026-04-30 19:14 45.61589 8.73636 740 ft 16 kts 75°
2026-04-30 19:14 45.61662 8.73735 739 ft 9 kts 342°
2026-04-30 19:15 45.61720 8.73708 739 ft 10 kts 350°
2026-04-30 19:15 45.62600 8.73466 742 ft 128 kts 349°
2026-04-30 19:15 45.63644 8.73177 823 ft 168 kts 349°
2026-04-30 19:16 45.64779 8.73050 1527 ft 164 kts 10°
2026-04-30 19:16 45.65821 8.73727 2064 ft 175 kts 47°
2026-04-30 19:16 45.67003 8.77073 2891 ft 208 kts 49°
2026-04-30 19:17 45.68085 8.78480 3625 ft 211 kts 40°
2026-04-30 19:17 45.70435 8.81057 5190 ft 216 kts 38°
2026-04-30 19:17 45.71632 8.82379 5958 ft 218 kts 41°
2026-04-30 19:18 45.72619 8.84790 6953 ft 218 kts 85°
2026-04-30 19:18 45.72023 8.87644 7584 ft 240 kts 125°
2026-04-30 19:18 45.71018 8.89595 8318 ft 246 kts 125°
2026-04-30 19:19 45.69997 8.91575 9123 ft 249 kts 125°
2026-04-30 19:19 45.68960 8.93591 9949 ft 253 kts 124°
2026-04-30 19:19 45.66509 8.98398 11684 ft 262 kts 123°
2026-04-30 19:20 45.65460 9.00555 12327 ft 269 kts 115°
2026-04-30 19:20 45.65008 9.02232 12814 ft 266 kts 99°
2026-04-30 19:20 45.65695 9.07202 14308 ft 261 kts 50°
2026-04-30 19:21 45.67052 9.08886 14960 ft 260 kts 26°
2026-04-30 19:21 45.70752 9.09544 15676 ft 294 kts 358°
2026-04-30 19:22 45.75148 9.09142 15942 ft 338 kts 358°
2026-04-30 19:22 45.82600 9.08469 17133 ft 369 kts 358°
2026-04-30 19:23 45.90407 9.07819 18926 ft 380 kts 358°
2026-04-30 19:24 45.95719 9.07367 20042 ft 385 kts 358°
2026-04-30 19:24 45.98403 9.07135 20602 ft 388 kts 358°
2026-04-30 19:24 46.03821 9.06518 21629 ft 392 kts
2026-04-30 19:25 46.12033 9.07565 23054 ft 398 kts
2026-04-30 19:26 46.17584 9.08348 24004 ft 403 kts
2026-04-30 19:26 46.23225 9.08996 24690 ft 412 kts
2026-04-30 19:26 46.26112 9.09298 24807 ft 420 kts
2026-04-30 19:27 46.32032 9.09924 25063 ft 432 kts
2026-04-30 19:27 46.38110 9.10594 25300 ft 443 kts
2026-04-30 19:28 46.41195 9.10947 25418 ft 446 kts
2026-04-30 19:28 46.47404 9.11664 25820 ft 448 kts
2026-04-30 19:29 46.53617 9.12363 26281 ft 447 kts
2026-04-30 19:29 46.56714 9.12713 26521 ft 446 kts
2026-04-30 19:30 46.65979 9.13763 27308 ft 444 kts
2026-04-30 19:30 46.72122 9.14456 27881 ft 442 kts
2026-04-30 19:31 46.78243 9.15163 28447 ft 440 kts
2026-04-30 19:31 46.81300 9.15517 28696 ft 440 kts
2026-04-30 19:31 46.87357 9.16220 29251 ft 438 kts
2026-04-30 19:32 46.90438 9.16574 29541 ft 438 kts
2026-04-30 19:32 46.93435 9.16919 29833 ft 438 kts
2026-04-30 19:32 46.96469 9.17268 30144 ft 437 kts
2026-04-30 19:32 46.99542 9.17621 30449 ft 437 kts
2026-04-30 19:33 47.02533 9.17967 30689 ft 436 kts
2026-04-30 19:33 47.05552 9.18314 30952 ft 435 kts
2026-04-30 19:33 47.08564 9.18661 31256 ft 433 kts
2026-04-30 19:33 47.11601 9.19009 31560 ft 431 kts
2026-04-30 19:34 47.14549 9.19348 31813 ft 430 kts
2026-04-30 19:34 47.17538 9.19693 32033 ft 430 kts
2026-04-30 19:34 47.23483 9.20387 32603 ft 427 kts
2026-04-30 19:35 47.26434 9.20735 32884 ft 426 kts
2026-04-30 19:35 47.29386 9.21085 33161 ft 425 kts
2026-04-30 19:35 47.32331 9.21432 33427 ft 424 kts
2026-04-30 19:35 47.35272 9.21774 33690 ft 423 kts
2026-04-30 19:36 47.38201 9.22113 33973 ft 422 kts
2026-04-30 19:36 47.41124 9.22451 34244 ft 421 kts
2026-04-30 19:36 47.46951 9.23133 34689 ft 420 kts
2026-04-30 19:37 47.49859 9.23480 34896 ft 419 kts
2026-04-30 19:37 47.52766 9.23825 35108 ft 419 kts
2026-04-30 19:37 47.55651 9.24169 35313 ft 419 kts
2026-04-30 19:37 47.58556 9.24513 35510 ft 419 kts
2026-04-30 19:38 47.61460 9.24855 35712 ft 419 kts
2026-04-30 19:38 47.64367 9.25197 35861 ft 420 kts
2026-04-30 19:38 47.67283 9.25540 36001 ft 421 kts
2026-04-30 19:38 47.70201 9.25884 36182 ft 420 kts
2026-04-30 19:39 47.76057 9.26578 36286 ft 424 kts
2026-04-30 19:39 47.81948 9.27276 36285 ft 425 kts
2026-04-30 19:40 47.87841 9.27979 36290 ft 425 kts
2026-04-30 19:40 47.93693 9.28684 36299 ft 424 kts
2026-04-30 19:41 47.99580 9.29387 36299 ft 424 kts
2026-04-30 19:41 48.05462 9.30086 36306 ft 424 kts
2026-04-30 19:42 48.11358 9.30789 36539 ft 424 kts
2026-04-30 19:42 48.14294 9.31145 36686 ft 424 kts
2026-04-30 19:42 48.17235 9.31501 36829 ft 423 kts
2026-04-30 19:43 48.20168 9.31855 36974 ft 423 kts
2026-04-30 19:43 48.23098 9.32212 37116 ft 422 kts
2026-04-30 19:43 48.26025 9.32572 37256 ft 422 kts
2026-04-30 19:44 48.31876 9.33282 37546 ft 421 kts
2026-04-30 19:44 48.34796 9.33635 37685 ft 420 kts
2026-04-30 19:44 48.37711 9.33988 37823 ft 419 kts
2026-04-30 19:44 48.40617 9.34340 37966 ft 419 kts
2026-04-30 19:45 48.43519 9.34695 38095 ft 418 kts
2026-04-30 19:45 48.46418 9.35051 38269 ft 417 kts
2026-04-30 19:45 48.49314 9.35408 38315 ft 418 kts
2026-04-30 19:46 48.55111 9.36120 38324 ft 418 kts
2026-04-30 19:46 48.60912 9.36832 38326 ft 418 kts
2026-04-30 19:47 48.66714 9.37544 38312 ft 418 kts
2026-04-30 19:47 48.72515 9.38255 38313 ft 418 kts
2026-04-30 19:48 48.78281 9.38962 38316 ft 419 kts
2026-04-30 19:48 48.84087 9.39688 38326 ft 419 kts
2026-04-30 19:49 48.89902 9.40417 38339 ft 419 kts
2026-04-30 19:49 48.98619 9.41507 38350 ft 419 kts
2026-04-30 19:50 49.04433 9.42232 38355 ft 419 kts
2026-04-30 19:50 49.10250 9.42955 38359 ft 419 kts
2026-04-30 19:51 49.16052 9.43682 38356 ft 419 kts
2026-04-30 19:51 49.21862 9.44409 38358 ft 419 kts
2026-04-30 19:52 49.27639 9.45141 38357 ft 419 kts
2026-04-30 19:52 49.33451 9.45876 38364 ft 419 kts
2026-04-30 19:53 49.39263 9.46604 38356 ft 419 kts
2026-04-30 19:53 49.45080 9.47335 38362 ft 419 kts
2026-04-30 19:54 49.50891 9.48078 38368 ft 419 kts
2026-04-30 19:54 49.56710 9.48823 38371 ft 420 kts
2026-04-30 19:55 49.62536 9.49566 38380 ft 420 kts
2026-04-30 19:55 49.68357 9.50322 38387 ft 420 kts
2026-04-30 19:56 49.74189 9.51071 38371 ft 421 kts
2026-04-30 19:56 49.79996 9.51807 38366 ft 422 kts
2026-04-30 19:57 49.85859 9.52555 38372 ft 423 kts
2026-04-30 19:57 49.91725 9.53322 38380 ft 423 kts
2026-04-30 19:58 49.97598 9.54089 38388 ft 424 kts
2026-04-30 19:58 50.03475 9.54849 38386 ft 424 kts
2026-04-30 19:59 50.09355 9.55606 38391 ft 424 kts
2026-04-30 20:00 50.18180 9.56760 38397 ft 424 kts
2026-04-30 20:00 50.24058 9.57540 38408 ft 424 kts
2026-04-30 20:01 50.32894 9.58707 38419 ft 425 kts
2026-04-30 20:01 50.38791 9.59482 38418 ft 425 kts
2026-04-30 20:02 50.47589 9.60644 38421 ft 425 kts
2026-04-30 20:03 50.56426 9.61820 38424 ft 425 kts
2026-04-30 20:03 50.62317 9.62611 38429 ft 425 kts
2026-04-30 20:04 50.68210 9.63407 38435 ft 425 kts
2026-04-30 20:05 50.77050 9.64515 38436 ft 425 kts
2026-04-30 20:05 50.84905 9.65305 38436 ft 425 kts
2026-04-30 20:06 50.90807 9.65909 38438 ft 425 kts
2026-04-30 20:06 50.96705 9.66539 38433 ft 425 kts
2026-04-30 20:07 51.02611 9.67177 38434 ft 425 kts
2026-04-30 20:08 51.11475 9.68138 38436 ft 426 kts
2026-04-30 20:08 51.17387 9.68773 38441 ft 426 kts
2026-04-30 20:09 51.23302 9.69459 38443 ft 426 kts
2026-04-30 20:09 51.32124 9.70940 38450 ft 427 kts
2026-04-30 20:10 51.40985 9.72456 38459 ft 427 kts
2026-04-30 20:11 51.49851 9.73903 38456 ft 427 kts
2026-04-30 20:11 51.55757 9.75011 38457 ft 427 kts
2026-04-30 20:12 51.64605 9.76751 38456 ft 427 kts
2026-04-30 20:13 51.70505 9.77874 38462 ft 427 kts
2026-04-30 20:13 51.76412 9.78984 38459 ft 427 kts
2026-04-30 20:14 51.82312 9.80109 38459 ft 427 kts
2026-04-30 20:14 51.88212 9.81240 38452 ft 427 kts
2026-04-30 20:15 51.94109 9.82378 38447 ft 427 kts
2026-04-30 20:15 52.00015 9.83522 38446 ft 427 kts
2026-04-30 20:16 52.05925 9.84668 38454 ft 428 kts
2026-04-30 20:16 52.11836 9.85822 38438 ft 428 kts
2026-04-30 20:17 52.17762 9.86981 38422 ft 430 kts
2026-04-30 20:17 52.23706 9.88155 38423 ft 431 kts
2026-04-30 20:18 52.29529 9.90385 38428 ft 430 kts 16°
2026-04-30 20:18 52.35317 9.92937 38281 ft 429 kts 15°
2026-04-30 20:18 52.38178 9.94194 38008 ft 424 kts 15°
2026-04-30 20:19 52.41023 9.95446 37722 ft 421 kts 15°
2026-04-30 20:19 52.43850 9.96685 37454 ft 419 kts 15°
2026-04-30 20:19 52.46663 9.97918 37186 ft 417 kts 15°
2026-04-30 20:19 52.49460 9.99149 36917 ft 415 kts 15°
2026-04-30 20:20 52.52206 10.00367 36619 ft 413 kts 15°
2026-04-30 20:20 52.54961 10.01595 36138 ft 408 kts 15°
2026-04-30 20:20 52.57688 10.02815 35637 ft 404 kts 15°
2026-04-30 20:20 52.60395 10.04025 35143 ft 401 kts 15°
2026-04-30 20:21 52.63082 10.05223 34661 ft 398 kts 15°
2026-04-30 20:21 52.65744 10.06412 34157 ft 395 kts 15°
2026-04-30 20:21 52.68387 10.07594 33640 ft 392 kts 15°
2026-04-30 20:21 52.71003 10.08769 33153 ft 388 kts 15°
2026-04-30 20:22 52.73593 10.09937 32679 ft 384 kts 15°
2026-04-30 20:22 52.76166 10.11069 32211 ft 381 kts 13°
2026-04-30 20:22 52.78776 10.11760 31570 ft 380 kts
2026-04-30 20:22 52.81408 10.11907 30861 ft 377 kts
2026-04-30 20:23 52.84023 10.11976 30012 ft 375 kts
2026-04-30 20:23 52.86637 10.11902 28981 ft 382 kts 353°
2026-04-30 20:23 52.89281 10.10571 27924 ft 417 kts 337°
2026-04-30 20:23 52.91881 10.08385 26868 ft 416 kts 334°
2026-04-30 20:24 52.94410 10.06156 25865 ft 407 kts 334°
2026-04-30 20:24 52.96881 10.03950 24909 ft 399 kts 334°
2026-04-30 20:24 52.99302 10.01762 23959 ft 393 kts 334°
2026-04-30 20:24 53.01683 9.99590 22858 ft 388 kts 334°
2026-04-30 20:25 53.06607 9.96773 20803 ft 371 kts
2026-04-30 20:25 53.09135 9.97175 19822 ft 362 kts 17°
2026-04-30 20:26 53.13881 9.99709 17824 ft 355 kts 21°
2026-04-30 20:26 53.18546 10.02263 15783 ft 350 kts 21°
2026-04-30 20:26 53.20853 10.03518 14812 ft 348 kts 21°
2026-04-30 20:27 53.25418 10.06002 12772 ft 342 kts 21°
2026-04-30 20:27 53.29759 10.08367 11904 ft 304 kts 21°
2026-04-30 20:28 53.33636 10.10457 11245 ft 288 kts 21°
2026-04-30 20:28 53.37403 10.12503 10579 ft 283 kts 21°
2026-04-30 20:29 53.41135 10.14545 10434 ft 283 kts 21°
2026-04-30 20:30 53.46766 10.17636 10452 ft 284 kts 21°
2026-04-30 20:30 53.51712 10.22321 10093 ft 273 kts 53°
2026-04-30 20:31 53.55168 10.29786 9096 ft 260 kts 54°
2026-04-30 20:32 53.58294 10.36630 8466 ft 236 kts 54°
2026-04-30 20:32 53.60282 10.40979 7811 ft 232 kts 54°
2026-04-30 20:33 53.61263 10.43128 7514 ft 230 kts 54°
2026-04-30 20:33 53.63197 10.47393 7451 ft 230 kts 54°
2026-04-30 20:33 53.64275 10.49388 7452 ft 233 kts 37°
2026-04-30 20:34 53.67431 10.49700 7454 ft 249 kts 334°
2026-04-30 20:34 53.69268 10.44860 7455 ft 260 kts 273°
2026-04-30 20:35 53.69222 10.41800 7453 ft 262 kts 265°
2026-04-30 20:35 53.69077 10.38739 7451 ft 262 kts 264°
2026-04-30 20:35 53.68755 10.32612 7448 ft 262 kts 264°
2026-04-30 20:36 53.68532 10.29565 7451 ft 261 kts 253°
2026-04-30 20:36 53.67715 10.26874 7456 ft 259 kts 232°
2026-04-30 20:36 53.65547 10.22076 6960 ft 256 kts 229°
2026-04-30 20:37 53.64455 10.19720 6602 ft 254 kts 229°
2026-04-30 20:37 53.63369 10.17379 6264 ft 252 kts 229°
2026-04-30 20:37 53.62291 10.15060 5928 ft 250 kts 229°
2026-04-30 20:37 53.61222 10.12767 5603 ft 248 kts 229°
2026-04-30 20:38 53.60159 10.10493 5283 ft 246 kts 229°
2026-04-30 20:38 53.59107 10.08247 5037 ft 242 kts 229°
2026-04-30 20:38 53.58060 10.06019 5009 ft 243 kts 229°
2026-04-30 20:39 53.55960 10.01547 5015 ft 243 kts 229°
2026-04-30 20:39 53.54928 9.99339 5009 ft 243 kts 229°
2026-04-30 20:39 53.53885 9.97104 5011 ft 243 kts 229°
2026-04-30 20:40 53.51793 9.92628 5011 ft 243 kts 229°
2026-04-30 20:40 53.50748 9.90388 5010 ft 243 kts 229°
2026-04-30 20:40 53.49704 9.88153 5012 ft 243 kts 229°
2026-04-30 20:41 53.47615 9.83680 5013 ft 243 kts 229°
2026-04-30 20:41 53.46570 9.81445 5010 ft 243 kts 229°
2026-04-30 20:41 53.45521 9.79206 5013 ft 244 kts 229°
2026-04-30 20:41 53.44475 9.76972 5011 ft 243 kts 229°
2026-04-30 20:42 53.43428 9.74738 4985 ft 244 kts 229°
2026-04-30 20:42 53.42381 9.72505 4986 ft 243 kts 229°
2026-04-30 20:42 53.40300 9.68068 4981 ft 244 kts 229°
2026-04-30 20:43 53.39252 9.65839 4984 ft 243 kts 229°
2026-04-30 20:43 53.38195 9.63577 4982 ft 244 kts 232°
2026-04-30 20:43 53.37538 9.60973 4982 ft 247 kts 263°
2026-04-30 20:44 53.38840 9.56041 4982 ft 243 kts 333°
2026-04-30 20:44 53.40434 9.55435 4985 ft 235 kts 11°
2026-04-30 20:44 53.42940 9.58464 4984 ft 227 kts 53°
2026-04-30 20:45 53.44967 9.62550 5007 ft 228 kts 52°
2026-04-30 20:45 53.45991 9.64591 4883 ft 228 kts 52°
2026-04-30 20:45 53.47009 9.66620 4617 ft 226 kts 52°
2026-04-30 20:46 53.49980 9.72557 3748 ft 218 kts 52°
2026-04-30 20:46 53.50943 9.74483 3457 ft 211 kts 52°
2026-04-30 20:47 53.52742 9.78088 2907 ft 193 kts 52°
2026-04-30 20:47 53.53591 9.79790 2692 ft 188 kts 52°
2026-04-30 20:48 53.55222 9.83066 2142 ft 181 kts 52°
2026-04-30 20:48 53.56003 9.84635 1922 ft 166 kts 52°
2026-04-30 20:48 53.56711 9.86059 1712 ft 153 kts 53°
2026-04-30 20:48 53.57383 9.87388 1460 ft 145 kts 53°
2026-04-30 20:49 53.58010 9.88685 1287 ft 141 kts 53°
2026-04-30 20:49 53.58640 9.89944 1082 ft 140 kts 52°
2026-04-30 20:49 53.59262 9.91199 927 ft 139 kts 52°
2026-04-30 20:50 53.60498 9.93707 583 ft 139 kts 51°
2026-04-30 20:50 53.61120 9.94949 370 ft 138 kts 51°
2026-04-30 20:50 53.61732 9.96185 172 ft 137 kts 51°
2026-04-30 20:50 53.62337 9.97401 43 ft 128 kts 52°
2026-04-30 20:51 53.62779 9.98307 43 ft 60 kts 50°
2026-04-30 20:51 53.63077 9.98952 46 ft 24 kts 69°
2026-04-30 20:51 53.63087 9.99200 47 ft 8 kts 98°
2026-04-30 20:52 53.63086 9.99220 47 ft 0 kts 98°
2026-04-30 20:53 53.63084 9.99236 47 ft 4 kts 97°
2026-04-30 20:53 53.63081 9.99280 45 ft 4 kts 97°
2026-04-30 20:53 53.63084 9.99367 43 ft 7 kts 61°
2026-04-30 20:54 53.63088 9.99376 45 ft 0 kts 56°
2026-04-30 20:56 53.63124 9.99469 46 ft 16 kts 54°
2026-04-30 20:57 53.63193 9.99612 47 ft 11 kts 49°
2026-04-30 20:57 53.63228 9.99683 48 ft 5 kts 57°
2026-04-30 20:57 53.63222 9.99749 46 ft 8 kts 123°
2026-04-30 20:58 53.63121 9.99849 48 ft 12 kts 154°
2026-04-30 20:58 53.63042 9.99918 48 ft 13 kts 152°
2026-04-30 20:58 53.62963 9.99989 48 ft 13 kts 150°
2026-04-30 20:58 53.62931 10.00114 48 ft 12 kts 108°
2026-04-30 20:59 53.62892 10.00213 48 ft 2 kts 122°
2026-04-30 20:59 53.62889 10.00220 46 ft 0 kts 122°